Weather History for KBKL - April, 2014

Change the Weather History Date:

Friday, April 4, 2014

  Actual Average (KCLE) Record (KCLE)
Temperature  
Mean Temperature 50 °F 45 °F  
Max Temperature 64 °F 54 °F 77 °F (1882)
Min Temperature 36 °F 37 °F 19 °F (1971)
Degree Days  
Heating Degree Days 15 20  
Month to date heating degree days 82  
Since 1 July heating degree days 5125  
Cooling Degree Days 0 0  
Month to date cooling degree days 0  
Year to date cooling degree days 1  
Moisture  
Dew Point 45 °F    
Average Humidity 89    
Maximum Humidity 100    
Minimum Humidity 70    
Precipitation  
Precipitation 0.26 in 0.12 in - ()
Month to date precipitation 0.48  
Year to date precipitation 8.47  
Snow  
Snow 0.00 in 0.20 in - ()
Month to date snowfall 0.9  
Since 1 July snowfall 65.7  
Snow Depth -    
Sea Level Pressure  
Sea Level Pressure 29.59 in    
Wind  
Wind Speed 12 mph (South)    
Max Wind Speed 36 mph    
Max Gust Speed 46 mph    
Visibility 7 miles    
Events Rain    
T = Trace of Precipitation, MM = Missing Value Source: NWS Daily Summary

Daily Weather History Graph

Daily Weather History Graph

Search for Another Location

Airport or City:

Trip Planner

Search our weather history database for the weather conditions in past years. The results will help you decide how hot, cold, wet, or windy it might be!

Date:

Astronomy

Apr. 04, 2014 Rise Set
Actual Time 7:04 AM EDT 7:55 PM EDT
Civil Twilight 6:36 AM EDT 8:23 PM EDT
Nautical Twilight 6:03 AM EDT 8:56 PM EDT
Astronomical Twilight 5:28 AM EDT 9:31 PM EDT
Moon 10:17 AM EDT (4/4) 12:15 AM EDT (4/4)
Length of Visible Light 13h 46m
Length of Day
12h 50m
Waxing Crescent, 25% of the Moon is Illuminated
Apr 4
Waxing Crescent
Apr 7
First Quarter
Apr 15
Full
Apr 22
Last Quarter
Apr 29
New

Hourly Weather History & Observations

Time (EDT) Temp. Windchill Dew Point Humidity Pressure Visibility Wind Dir Wind Speed Gust Speed Precip Events Conditions
12:53 AM 36.0 °F 28.0 °F 36.0 °F 100% 29.76 in 3.0 mi NE 11.5 mph - 0.00 in Rain Light Rain
1:53 AM 36.0 °F 29.0 °F 36.0 °F 100% 29.75 in 5.0 mi NE 9.2 mph - 0.00 in   Overcast
2:53 AM 36.0 °F 29.6 °F 36.0 °F 100% 29.72 in 4.0 mi NE 8.1 mph - 0.00 in Rain Light Rain
3:26 AM 37.4 °F 31.4 °F 37.4 °F 100% 29.71 in 4.0 mi NE 8.1 mph - 0.00 in Rain Light Rain
3:53 AM 36.0 °F 31.1 °F 36.0 °F 100% 29.73 in 5.0 mi NNE 5.8 mph - 0.00 in Rain Light Rain
4:53 AM 37.0 °F 32.4 °F 37.0 °F 100% 29.70 in 5.0 mi NE 5.8 mph - 0.00 in Rain Light Rain
5:53 AM 37.0 °F 33.3 °F 36.0 °F 96% 29.68 in 5.0 mi ENE 4.6 mph - 0.00 in   Overcast
6:48 AM 37.4 °F - 37.4 °F 100% 29.65 in 6.0 mi Calm Calm - 0.00 in Rain Light Rain
6:53 AM 37.9 °F - 37.9 °F 100% 29.66 in 6.0 mi Calm Calm - 0.00 in Rain Light Rain
7:03 AM 39.2 °F - 37.4 °F 93% 29.65 in 6.0 mi Calm Calm - 0.00 in Rain Light Rain
7:30 AM 37.4 °F 34.9 °F 37.4 °F 100% 29.63 in 4.0 mi NE 3.5 mph - 0.00 in Rain Light Rain
7:53 AM 39.0 °F 36.8 °F 39.0 °F 100% 29.62 in 3.0 mi East 3.5 mph - 0.01 in Rain Light Rain
8:02 AM 41.0 °F 38.0 °F 39.2 °F 93% 29.60 in 1.5 mi East 4.6 mph - 0.00 in Rain Light Rain
8:08 AM 41.0 °F 39.0 °F 39.2 °F 93% 29.59 in 0.8 mi ESE 3.5 mph - 0.01 in Rain Light Rain
8:21 AM 51.8 °F - 51.8 °F 100% 29.59 in 2.5 mi SSE 9.2 mph - 0.01 in Rain Rain
8:28 AM 53.6 °F - 51.8 °F 94% 29.58 in 6.0 mi SSE 9.2 mph - 0.02 in Rain Rain
8:53 AM 53.1 °F - 53.1 °F 100% 29.58 in 6.0 mi SSE 11.5 mph - 0.03 in Rain Light Rain
9:53 AM 55.0 °F - 54.0 °F 96% 29.55 in 10.0 mi SE 12.7 mph - 0.04 in Rain Light Rain
10:53 AM 57.9 °F - 55.9 °F 93% 29.52 in 10.0 mi SSE 12.7 mph - 0.00 in Rain Light Rain
11:09 AM 57.2 °F - 55.4 °F 94% 29.50 in 10.0 mi SSE 10.4 mph 18.4 mph 0.00 in Rain Light Rain
11:21 AM 59.0 °F - 55.4 °F 88% 29.49 in 10.0 mi SSE 13.8 mph 20.7 mph 0.00 in Rain Light Rain
11:28 AM 59.0 °F - 57.2 °F 94% 29.49 in 10.0 mi SSE 13.8 mph 21.9 mph 0.00 in Rain Light Rain
11:45 AM 60.8 °F - 57.2 °F 88% 29.49 in 10.0 mi SSE 16.1 mph 24.2 mph 0.01 in Rain Light Rain
11:53 AM 60.1 °F - 57.0 °F 90% 29.49 in 10.0 mi South 17.3 mph 24.2 mph 0.01 in Rain Light Rain
12:37 PM 60.8 °F - 57.2 °F 88% 29.44 in 10.0 mi SSE 15.0 mph - 0.01 in Rain Light Rain
12:53 PM 61.0 °F - 57.9 °F 90% 29.40 in 10.0 mi SSE 17.3 mph 23.0 mph 0.01 in   Scattered Clouds
1:21 PM 62.6 °F - 57.2 °F 82% 29.45 in 10.0 mi SW 15.0 mph - N/A   Mostly Cloudy
1:43 PM 60.8 °F - 57.2 °F 88% 29.46 in 7.0 mi SSW 23.0 mph 27.6 mph 0.01 in   Overcast
1:53 PM 61.0 °F - 57.0 °F 87% 29.47 in 8.0 mi SSW 17.3 mph 25.3 mph 0.01 in   Overcast
2:53 PM 61.0 °F - 55.9 °F 83% 29.46 in 10.0 mi SW 16.1 mph - N/A   Overcast
3:05 PM 60.8 °F - 55.4 °F 82% 29.45 in 10.0 mi SSW 10.4 mph 19.6 mph N/A   Overcast
3:34 PM 62.6 °F - 57.2 °F 82% 29.43 in 10.0 mi SW 12.7 mph - N/A   Mostly Cloudy
3:53 PM 64.9 °F - 57.0 °F 75% 29.42 in 10.0 mi SSW 17.3 mph 23.0 mph N/A   Scattered Clouds
4:15 PM 50.0 °F - 46.4 °F 87% 29.47 in 1.8 mi West 35.7 mph 43.7 mph 0.08 in   Mostly Cloudy
4:26 PM 46.4 °F 37.5 °F 44.6 °F 93% 29.49 in 4.0 mi West 27.6 mph - 0.11 in   Overcast
4:53 PM 44.1 °F 35.4 °F 43.0 °F 96% 29.51 in 10.0 mi West 21.9 mph - 0.14 in   Overcast
5:53 PM 43.0 °F 33.5 °F 39.9 °F 89% 29.56 in 10.0 mi West 24.2 mph 33.4 mph N/A   Overcast
6:53 PM 46.9 °F - 39.0 °F 74% 29.61 in 10.0 mi SW 34.5 mph 43.7 mph N/A   Scattered Clouds
7:53 PM 44.1 °F 33.2 °F 35.1 °F 71% 29.67 in 10.0 mi WSW 35.7 mph 46.0 mph N/A   Overcast
8:11 PM 42.8 °F 32.1 °F 35.6 °F 76% 29.67 in 10.0 mi West 31.1 mph 36.8 mph N/A   Overcast
8:46 PM 42.8 °F 33.5 °F 33.8 °F 70% 29.70 in 10.0 mi WSW 23.0 mph 34.5 mph N/A   Overcast
8:53 PM 42.1 °F 32.6 °F 35.1 °F 76% 29.71 in 10.0 mi WSW 23.0 mph 34.5 mph N/A   Overcast
9:53 PM 39.9 °F 28.6 °F 34.0 °F 79% 29.74 in 10.0 mi WSW 28.8 mph 38.0 mph 0.01 in   Overcast
10:53 PM 39.9 °F 29.2 °F 30.9 °F 70% 29.76 in 10.0 mi WSW 25.3 mph 34.5 mph N/A   Overcast
11:53 PM 39.0 °F 29.0 °F 30.9 °F 73% 29.79 in 10.0 mi WSW 20.7 mph 31.1 mph N/A   Overcast